Starlink 31359

operational
NORAD ID: 58945 Int'l Des: 2024-027 Owner: SPXS Country: US Constellation: starlink
LEOCIRCULAR

Über Starlink 31359

Beschreibung wird geladen...

Live-Position

3D-Globus wird geladen...

Nächste Überflüge

Höhenverlauf

Altitude vs Time

uPlot chart will show altitude changes over time

Zweizeiliger Elementsatz

1 58945U 24027Q 25353.13086629 .00003717 00000-0 13764-3 0 9991
2 58945 53.1617 285.3795 0001573 79.5649 280.5529 15.30179601105540
Epoch: 19. Dez. 2025 • Age: 20 hours

Aktueller Status

Höhe 475.9 km
Geschwindigkeit 7.63 km/s
Subsatellitenpunkt 2.58°N, 30.08°E
Startdatum 10. Feb. 2024
Alter 1.8 years
Typ internet

Technische Details

Klassifizierung Payload
Masse 730.00 kg
Trockenmasse 700.00 kg
Gesamtmasse 730.00 kg
Länge 0.30 m
Durchmesser 4.10 m
Spannweite 29.00 m
Form Box + pan
Hersteller SPXS
Bus-Typ Starlink V2M
Phasenstatus In Orbit
Besitzer/Staat SPXS/US

Große Konstellationen

Loading constellations...